Location: Wien
(48.2082°N, 16.3738°E)
Time: 12:19:08
(UTC+02:00)

Tiros 1 despin weight - Pass Details

Date: 21 September 2024
Orbit: 573 x 615 km, 48.2° (Epoch: 06 October)

Event Time Altitude Azimuth Distance (km) Brightness Sun altitude
Rises 08:22:43 0° 279° (W) 2,887 ? 16.0°
Reaches altitude 10° 08:25:57 10° 256° (WSW) 1,978 ? 16.5°
Maximum altitude 08:28:24 14° 223° (SW) 1,699 ? 16.9°
Drops below altitude 10° 08:30:50 10° 190° (S) 1,968 ? 17.3°
Sets 08:34:03 0° 166° (SSE) 2,863 ? 17.8°
